N9JXN-13 Weather Reports


time (UTC)temp
C
wind
direction
speed
KPH
gust
KPH
rain 1hr
cm
rain 24hr
cm
rain mn
cm
humidity
%
barometer
mb
20260504035921 15 214 1.6 8.0 0.00 0.03 0.03 67 1006.0
20260504035420 15 219 3.2 8.0 0.00 0.03 0.03 67 1006.0
20260504034922 15 222 1.6 8.0 0.00 0.03 0.03 66 1006.0
20260504034421 15 234 1.6 8.0 0.00 0.03 0.03 66 1006.0
20260504033920 15 220 3.2 8.0 0.00 0.03 0.03 65 1006.1
20260504033421 15 232 1.6 8.0 0.00 0.03 0.03 65 1006.1
20260504032921 15 214 1.6 8.0 0.00 0.03 0.03 65 1006.2
20260504032421 15 203 1.6 8.0 0.00 0.03 0.03 65 1006.2
20260504031922 15 213 1.6 4.8 0.00 0.03 0.03 65 1006.2
20260504031422 15 229 0.0 4.8 0.00 0.03 0.03 65 1006.2
20260504030921 15 229 1.6 4.8 0.00 0.03 0.03 65 1006.2
20260504025922 15 212 1.6 3.2 0.00 0.03 0.03 66 1006.3
20260504024920 15 203 0.0 3.2 0.00 0.03 0.03 64 1006.2
20260504023920 15 203 0.0 4.8 0.00 0.03 0.03 63 1006.3
20260504023421 15 193 0.0 4.8 0.00 0.03 0.03 63 1006.2
20260504022921 15 221 0.0 4.8 0.00 0.03 0.03 62 1006.2
20260504021921 16 217 0.0 4.8 0.00 0.03 0.03 61 1006.2
20260504021421 16 223 1.6 4.8 0.00 0.03 0.03 60 1006.1
20260504020921 16 263 1.6 8.0 0.00 0.03 0.03 60 1006.1
20260504020421 16 227 1.6 8.0 0.00 0.03 0.03 60 1006.2
20260504015921 16 209 1.6 8.0 0.00 0.03 0.03 60 1006.1
20260504015421 16 209 1.6 4.8 0.00 0.03 0.03 60 1006.0
20260504014921 16 223 1.6 4.8 0.00 0.03 0.03 59 1006.0
20260504013921 16 217 1.6 4.8 0.00 0.03 0.03 59 1006.0
20260504013420 17 203 1.6 11.3 0.00 0.03 0.03 58 1005.9
20260504012920 17 200 0.0 11.3 0.00 0.03 0.03 58 1006.0
20260504011920 17 217 0.0 4.8 0.00 0.03 0.03 58 1005.9
20260504011422 17 218 0.0 3.2 0.00 0.03 0.03 58 1005.8
20260504010921 17 217 0.0 4.8 0.00 0.03 0.03 57 1005.9
20260504010421 17 217 1.6 4.8 0.00 0.03 0.03 56 1005.8
20260504005921 17 217 0.0 4.8 0.00 0.03 0.03 55 1005.8
20260504005420 17 202 0.0 8.0 0.00 0.03 0.03 55 1005.8
20260504004921 18 196 1.6 8.0 0.00 0.03 0.03 54 1005.8
20260504004421 18 207 1.6 4.8 0.00 0.03 0.03 52 1005.8
20260504003921 18 200 1.6 9.7 0.00 0.03 0.03 51 1005.8
20260504003420 18 207 1.6 9.7 0.00 0.03 0.03 50 1005.7
20260504002921 18 209 1.6 9.7 0.00 0.03 0.03 50 1005.7
20260504001921 18 242 1.6 9.7 0.00 0.03 0.03 51 1005.8
20260504001422 18 279 0.0 4.8 0.00 0.03 0.03 50 1005.9
20260504000920 19 197 1.6 4.8 0.00 0.03 0.03 49 1005.9
20260504000423 19 213 1.6 14.5 0.00 0.03 0.03 48 1006.0
20260503235921 19 192 3.2 14.5 0.00 0.03 0.03 48 1006.0
20260503235421 19 239 3.2 12.9 0.00 0.03 0.03 48 1006.1
20260503234421 19 257 1.6 11.3 0.00 0.03 0.03 48 1006.1
20260503233921 19 212 4.8 14.5 0.00 0.03 0.03 48 1006.1
20260503233421 20 279 4.8 14.5 0.00 0.03 0.03 47 1006.0
20260503232922 20 230 3.2 12.9 0.00 0.03 0.03 47 1006.0
20260503231920 20 229 4.8 12.9 0.00 0.03 0.03 46 1006.1
20260503231421 20 235 4.8 12.9 0.00 0.03 0.03 46 1006.0
20260503230921 20 209 3.2 12.9 0.00 0.03 0.03 45 1006.2
20260503230421 20 235 3.2 19.3 0.00 0.03 0.03 45 1006.2
20260503225921 20 256 4.8 19.3 0.00 0.03 0.03 45 1006.2
20260503224422 20 266 3.2 12.9 0.00 0.03 0.03 44 1006.3
20260503223921 20 193 3.2 12.9 0.00 0.03 0.03 44 1006.3
20260503223421 20 220 1.6 14.5 0.00 0.03 0.03 45 1006.4
20260503222922 20 271 1.6 14.5 0.00 0.03 0.03 44 1006.5
20260503222420 20 250 4.8 16.1 0.00 0.03 0.03 44 1006.5
20260503221921 20 265 4.8 16.1 0.00 0.03 0.03 43 1006.5
20260503221421 20 231 3.2 14.5 0.00 0.03 0.03 43 1006.5
20260503220922 20 269 3.2 14.5 0.00 0.03 0.03 43 1006.4
20260503220421 20 252 4.8 24.1 0.00 0.03 0.03 42 1006.4
20260503215920 20 226 6.4 24.1 0.00 0.03 0.03 43 1006.3
20260503215421 20 228 6.4 32.2 0.00 0.03 0.03 44 1006.3
20260503214921 20 236 8.0 32.2 0.00 0.03 0.03 43 1006.4
20260503214420 20 268 4.8 20.9 0.00 0.03 0.03 43 1006.5
20260503213920 20 251 4.8 20.9 0.00 0.03 0.03 43 1006.5
20260503213421 20 228 4.8 22.5 0.00 0.03 0.03 42 1006.5
20260503212921 20 202 4.8 22.5 0.00 0.03 0.03 42 1006.6
20260503212420 20 210 3.2 19.3 0.00 0.03 0.03 41 1006.6
20260503211921 20 261 3.2 19.3 0.00 0.03 0.03 42 1006.7
20260503210921 21 224 4.8 16.1 0.00 0.03 0.03 40 1006.7
20260503210421 21 201 4.8 32.2 0.00 0.03 0.03 40 1006.8
20260503205922 20 191 14.5 32.2 0.00 0.03 0.03 41 1006.9
20260503205421 20 201 9.7 24.1 0.00 0.03 0.03 41 1007.1
20260503204920 20 194 8.0 24.1 0.00 0.03 0.03 40 1007.2
20260503204420 20 224 6.4 19.3 0.00 0.03 0.03 41 1007.3
20260503203421 20 197 6.4 25.7 0.00 0.03 0.03 43 1007.6
20260503202921 20 269 9.7 32.2 0.00 0.03 0.03 41 1007.7
20260503202420 20 209 11.3 32.2 0.00 0.03 0.03 40 1007.8
20260503201922 20 215 11.3 27.4 0.00 0.03 0.03 41 1007.8
20260503201422 20 197 11.3 24.1 0.00 0.03 0.03 41 1008.0
20260503200920 20 187 9.7 24.1 0.00 0.03 0.03 40 1008.1
20260503200421 20 201 8.0 24.1 0.00 0.03 0.03 41 1008.1
20260503195921 20 209 9.7 29.0 0.00 0.03 0.03 41 1008.2
20260503195421 19 205 11.3 29.0 0.00 0.03 0.03 41 1008.3
20260503194920 20 206 12.9 29.0 0.00 0.03 0.03 39 1008.4
20260503193421 19 213 11.3 25.7 0.00 0.03 0.03 41 1008.7
20260503192921 19 184 12.9 25.7 0.00 0.03 0.03 43 1008.7
20260503192422 18 202 9.7 29.0 0.00 0.03 0.03 43 1008.8
20260503190921 20 204 9.7 32.2 0.00 0.03 0.03 41 1009.0
20260503190420 20 196 11.3 32.2 0.00 0.03 0.03 41 1008.8
20260503185920 20 171 9.7 25.7 0.00 0.03 0.03 42 1008.9
20260503185421 18 189 14.5 29.0 0.00 0.03 0.03 43 1009.0
20260503184921 18 188 14.5 29.0 0.00 0.03 0.03 43 1009.2
20260503183921 18 201 17.7 33.8 0.00 0.03 0.03 42 1009.2
20260503183820 18 201 16.1 33.8 0.00 0.03 0.03 43 1009.4
20260503183421 18 206 11.3 33.8 0.00 0.03 0.03 46 1009.4
20260503182921 18 189 11.3 33.8 0.00 0.03 0.03 48 1009.6
20260503182420 17 182 8.0 29.0 0.00 0.03 0.03 50 1009.7
20260503181921 17 200 11.3 29.0 0.00 0.03 0.03 50 1009.8
20260503181421 17 185 9.7 22.5 0.00 0.03 0.03 54 1009.9
20260503180920 16 210 6.4 19.3 0.00 0.03 0.03 57 1010.1
20260503175923 15 189 9.7 19.3 0.00 0.03 0.03 60 1010.5
20260503175420 15 190 4.8 16.1 0.00 0.03 0.03 66 1010.6
20260503174921 14 169 4.8 16.1 0.00 0.03 0.03 64 1010.8
20260503174421 13 221 4.8 12.9 0.00 0.03 0.03 66 1011.2
20260503173920 13 189 3.2 8.0 0.00 0.03 0.03 66 1011.3
20260503173421 13 226 3.2 8.0 0.00 0.03 0.03 67 1011.5
20260503172921 13 181 4.8 9.7 0.00 0.03 0.03 66 1011.7
20260503172421 13 170 3.2 12.9 0.00 0.03 0.03 66 1011.9
20260503171920 13 189 3.2 12.9 0.00 0.03 0.03 66 1012.0
20260503171421 13 194 4.8 12.9 0.00 0.03 0.03 70 1012.0
20260503170920 12 197 3.2 11.3 0.00 0.03 0.03 70 1012.1
20260503170420 12 186 3.2 11.3 0.00 0.03 0.03 71 1012.3
20260503150921 9 191 1.6 3.2 0.00 0.00 0.00 80 1014.1
20260503150421 9 190 0.0 1.6 0.00 0.00 0.00 80 1014.2
20260503130921 10 201 4.8 22.5 0.00 0.00 0.00 64 1014.6
20260503130420 10 229 4.8 22.5 0.00 0.00 0.00 64 1014.7
20260503110420 7 209 4.8 11.3 0.00 0.00 0.00 66 1014.5
20260503090420 7 202 3.2 9.7 0.00 0.00 0.00 67 1015.2
20260503081420 7 173 1.6 9.7 0.00 0.00 0.00 65 1015.4
20260503080919 7 223 3.2 9.7 0.00 0.00 0.00 65 1015.3
20260503080421 7 215 3.2 8.0 0.00 0.00 0.00 65 1015.3
20260503072920 7 203 3.2 9.7 0.00 0.00 0.00 63 1015.4
20260503071920 7 206 3.2 11.3 0.00 0.00 0.00 63 1015.5
20260503071420 7 206 1.6 4.8 0.00 0.00 0.00 63 1015.5
20260503070419 7 220 3.2 8.0 0.00 0.00 0.00 62 1015.6
20260503054420 8 193 3.2 12.9 0.00 0.00 0.00 57 1016.2
20260503051921 8 207 0.0 4.8 0.00 0.00 0.00 57 1016.4
20260503051420 8 213 0.0 4.8 0.00 0.00 0.00 57 1016.4
20260503050920 8 213 1.6 4.8 0.00 0.00 0.00 56 1016.5
20260503045919 8 209 1.6 8.0 0.00 0.00 0.00 55 1016.6
20260503045421 8 200 1.6 9.7 0.00 0.00 0.00 55 1016.5
20260503044921 8 202 0.0 9.7 0.00 0.00 0.00 55 1016.6
20260503044421 8 203 1.6 8.0 0.00 0.00 0.00 55 1016.5
20260503043920 8 219 1.6 4.8 0.00 0.00 0.00 55 1016.6
20260503042919 8 210 1.6 4.8 0.00 0.00 0.00 56 1016.6
20260503042421 8 217 0.0 4.8 0.00 0.00 0.00 56 1016.6
20260503041420 7 232 0.0 1.6 0.00 0.00 0.00 59 1016.7
20260503040920 7 239 0.0 1.6 0.00 0.00 0.00 62 1016.7